STARLINK-38172, 100214

Orbit data source: Space-Track

STARLINK-38172, 100214 is a payload satellite owned by SpaceX/Seattle (US) in SSO that was launched on Tue, 04 Aug 2026 UTC launched from the Air Force Western Test Range (AFWTR). Payload-class satellites include a variety of spacecraft equipped with specific instruments for various scientific and technological missions. These include communications satellites like Starlink; space stations such as the ISS; scientific satellites like the Hubble; Earth observation satellites from companies like Planet Labs, Umbra, and HawkEye 360; GPS; miniature CubeSats for education and research; and military/defense satellites.

Loading next visibility...
Identifier
100214, 2026-177B
Orbit
SSO
Country
Flag of USUS
Related business
Manufacturer
SpaceX/Seattle
Mission
Operational spacecraft
Bus & Motor
STARLINK V2MO, Unknown motor
Mass
575 kg wet, ~530 kg dry
Launch date (UTC)
2026-08-04 (1 month ago)
Launch vehicle
Unknown
Launch site
Air Force Western Test Range (AFWTR)
Object type
Payload
Rocket body
Debris
Shape & HBR
BOX + PAN, 17.7 m
Radar Cross Section
Large (>1 m²)

Expand to show TLE details & history
Last TLE update: 9 hours ago

TLE from 9 hours ago
0 STARLINK-38172
1 A0214U 26177B   26254.60029627 -.00423449  00000-0 -52172-2 0  9998
2 A0214  97.2835 305.3256 0001375  29.9486 330.1851 15.61512389  5985
Epoch: 2026-09-11T14:24Z
TLE epoch observation values (Epoch: 2026-09-11T14:24:25.597Z)
Latitude
0.00003°
Longitude
98.59762°
Altitude
385.631 km
Speed
7.679 km/s
True Right ascension
20h 21m 18s
True Declination
0° 00' 00"
Sunlit
Object was in full shadow at epoch
Visualization orbit readout
Latitude
Unknown
Longitude
Unknown
Altitude
Unknown
Speed
Unknown
Apparent Right ascension
Unknown
Apparent Declination
Unknown
Sunlit
N/A
Visualization observer readout
Local Sidereal Time
15:23:52
Azimuth
Unknown
Elevation
Unknown
Doppler factor
Unknown
Orbital elements
Apogee altitude
381.122 km
Perigee altitude
379.264 km
Semi-major axis
6,758.33 km
Eccentricity
0.00014
Inclination
97.2835°
RAAN
305.3256°
Arg. of periapsis
29.9486°
True anomaly
330.17726°
Mean anomaly
330.1851°
Eccentric anomaly
330.18118°
Mean motion
3.90647 °/min
Orbital period
92.15 mins
BSTAR
-0.0052172
Loading maneuver chart data...
Computing Atmospheric mass density...
Loading historical data...
Loading historical data...
Loading historical data...
Loading historical data...
Loading historical data...
Loading historical data...
Loading historical data...

Documentation

Showing up to 5 results
|